This demonstration page uses our WeatherBlox Daily Observations layout. Learn more.

Left ArrowRight Arrow

Hourly Observations for November 24, 2020

Temp ( °F °C ) Dew Point ( °F °C ) Humidity (%) Winds ( mph kmh ) Pressure ( in mb ) Visibility ( mi km ) Precip ( " mm )
12:53 am 00:53 Clear with Mist and Fog 30 -1.1 28 -2.2 92 92 Calm 30.35 1028 6 10 0.00 0.00
1:53 am 01:53 Mostly Clear with Mist and Fog 30 -1.1 29 -1.7 96 96 Calm 30.34 1027 6 10 0.00 0.00
2:53 am 02:53 Cloudy with Mist and Fog 33 0.6 32 0 96 96 Calm 30.35 1028 6 10 0.00 0.00
3:53 am 03:53 Cloudy 36 2.2 34 1.1 93 93 Calm 30.35 1028 7 11 0.00 0.00
4:53 am 04:53 Cloudy 36 2.2 35 1.7 97 97 Calm 30.34 1028 8 13 0.00 0.00
5:53 am 05:53 Cloudy 37 2.8 35 1.7 93 93 Calm 30.34 1028 7 11 0.00 0.00
6:53 am 06:53 Cloudy 39 3.9 35 1.7 86 86 Calm 30.35 1028 10 16 0.00 0.00
7:53 am 07:53 Mostly Cloudy 40 4.4 34 1.1 79 79 E 3 6 30.33 1027 10 16 0.00 0.00
8:53 am 08:53 Cloudy 42 5.6 33 0.6 71 71 ESE 3 6 30.35 1028 10 16 0.00 0.00
9:53 am 09:53 Cloudy 42 5.6 33 0.6 71 71 VRB 3 6 30.34 1028 10 16 0.00 0.00
10:53 am 10:53 Cloudy with Light Rain 43 6.1 34 1.1 71 71 ESE 6 9 30.32 1027 10 16 0.00 0.00
11:53 am 11:53 Cloudy 45 7.2 35 1.7 68 68 ESE 6 9 30.29 1026 10 16 0.01 0.25
12:53 pm 12:53 Mostly Sunny 46 7.8 35 1.7 66 66 ESE 8 13 30.24 1024 10 16 0.00 0.00
1:53 pm 13:53 Partly Cloudy 48 8.9 34 1.1 58 58 ESE 8 13 30.21 1023 10 16 0.00 0.00
2:53 pm 14:53 Sunny 48 8.9 34 1.1 58 58 ESE 6 9 30.18 1022 10 16 0.00 0.00
3:53 pm 15:53 Sunny 48 8.9 34 1.1 58 58 ESE 5 7 30.16 1021 10 16 0.00 0.00
4:53 pm 16:53 Sunny 47 8.3 35 1.7 63 63 ESE 3 6 30.15 1021 10 16 0.00 0.00
5:53 pm 17:53 Clear 45 7.2 35 1.7 68 68 ESE 3 6 30.14 1021 10 16 0.00 0.00
6:53 pm 18:53 Clear 42 5.6 34 1.1 73 73 ESE 5 7 30.13 1020 10 16 0.00 0.00
7:53 pm 19:53 Clear 43 6.1 35 1.7 74 74 ESE 3 6 30.13 1020 10 16 0.00 0.00
8:53 pm 20:53 Clear 42 5.6 35 1.7 76 76 Calm 30.11 1020 10 16 0.00 0.00
9:53 pm 21:53 Clear 44 6.7 35 1.7 71 71 ESE 3 6 30.09 1019 10 16 0.00 0.00
10:53 pm 22:53 Clear 41 5 34 1.1 76 76 ESE 3 6 30.06 1018 10 16 0.00 0.00
11:53 pm 23:53 Clear 42 5.6 35 1.7 76 76 Calm 30.05 1018 10 16 0.00 0.00

Powered by AerisWeather